Find Starlink 32236

NORAD ID: 60418 Int'l Des: 2024-141 Owner: SPXS Country: US Constellation: starlink operational
LEOCIRCULAR

現在のビュー

3D地球を読み込み中...

About Starlink 32236

Starlink 32236 (NORAD 60418) is a starlink constellation satellite (v2 mini) launched Aug 10, 2024 by SPXS of US. It operates in LEO, CIRCULAR orbit with a mass of 730.00 kg.

Starlink 32236について

説明を読み込み中...

次回通過

Passes for default location (London). Set your location on the main map for personalized predictions.

高度履歴

Loading altitude history...

軌道要素

1 60418U 24141W 26170.16453219 -.00000262 00000-0 33955-5 0 9999
2 60418 53.1613 130.0611 0001396 92.9209 267.1954 15.34391358105138
Epoch: Jun 19, 2026 • Age: 9 hours

現在のステータス

高度 463.6 km
速度 7.64 km/s
衛星直下点 -0.41°S, 147.28°W
打ち上げ日 Aug 10, 2024
運用期間 1.8 years
タイプ internet

技術仕様

分類 Payload
質量 730.00 kg
乾燥質量 700.00 kg
総質量 730.00 kg
長さ 0.30 m
直径 4.10 m
スパン 29.00 m
形状 Box + pan
製造者 SPXS
バスタイプ Starlink V2M
フェーズステータス In Orbit
所有者/国 SPXS/US

Most Searched